RAISE-4

operational
NORAD ID: 67072 Int'l Des: 2025-297 Owner: JAXA Country: J
LEORETROGRADE

RAISE-4について

説明を読み込み中...

リアルタイム位置

3D地球を読み込み中...

次回通過

高度履歴

Altitude vs Time

uPlot chart will show altitude changes over time

軌道要素

1 67072U 25297A 25352.66521068 .02275538 22218-5 13641-2 0 9997
2 67072 97.4744 140.5365 0208203 211.0678 147.8147 15.85984963 722
Epoch: Dec 18, 2025 • Age: 4 hours

現在のステータス

高度 201.8 km
速度 7.85 km/s
衛星直下点 5.32°N, 62.33°W
打ち上げ日 Dec 14, 2025
運用期間 4 days
タイプ other

技術仕様

分類 Payload
質量 110.00 kg
乾燥質量 110.00 kg
総質量 110.00 kg
長さ 1.00 m
直径 0.80 m
スパン 1.00 m
形状 Box
製造者 MHI
バスタイプ RAPIS
フェーズステータス In Orbit
所有者/国 JAXA/J

大規模コンステレーション

Loading constellations...